TimeEST,TemperatureF,Dew PointF,Humidity,Sea Level PressureIn,VisibilityMPH,Wind Direction,Wind SpeedMPH,Gust SpeedMPH,PrecipitationIn,Events,Conditions,WindDirDegrees,DateUTC
12:53 AM,73.0,69.1,87,30.06,10.0,ESE,4.6,-,N/A,,Clear,110,2014-01-05 05:53:00
1:53 AM,72.0,69.1,91,30.05,10.0,SSE,3.5,-,N/A,,Partly Cloudy,150,2014-01-05 06:53:00
2:53 AM,72.0,69.1,91,30.03,10.0,ESE,3.5,-,N/A,,Clear,120,2014-01-05 07:53:00
3:53 AM,73.0,68.0,84,30.00,10.0,ESE,8.1,-,N/A,,Clear,120,2014-01-05 08:53:00
4:53 AM,73.0,68.0,84,29.98,10.0,ESE,9.2,-,N/A,,Clear,120,2014-01-05 09:53:00
5:53 AM,73.9,70.0,87,29.96,10.0,SE,16.1,23.0,N/A,,Clear,130,2014-01-05 10:53:00
6:53 AM,75.0,71.1,87,29.99,10.0,SE,10.4,-,N/A,,Clear,140,2014-01-05 11:53:00
7:53 AM,75.0,71.1,87,30.02,10.0,SE,8.1,-,N/A,,Scattered Clouds,130,2014-01-05 12:53:00
8:08 AM,75.2,71.6,89,30.03,10.0,SE,5.8,-,N/A,,Mostly Cloudy,130,2014-01-05 13:08:00
8:26 AM,75.2,71.6,89,30.04,10.0,SE,4.6,-,N/A,,Scattered Clouds,140,2014-01-05 13:26:00
8:33 AM,77.0,71.6,83,30.04,10.0,SE,4.6,-,N/A,,Mostly Cloudy,140,2014-01-05 13:33:00
8:53 AM,77.0,72.0,84,30.04,10.0,SE,5.8,-,N/A,,Mostly Cloudy,140,2014-01-05 13:53:00
9:01 AM,77.0,71.6,83,30.05,10.0,SSE,4.6,-,N/A,,Scattered Clouds,150,2014-01-05 14:01:00
9:53 AM,77.0,72.0,84,30.05,10.0,SE,8.1,-,N/A,,Mostly Cloudy,140,2014-01-05 14:53:00
10:53 AM,82.0,72.0,71,30.04,10.0,SSE,12.7,-,N/A,,Partly Cloudy,150,2014-01-05 15:53:00
11:53 AM,82.0,71.1,69,30.02,10.0,South,9.2,18.4,N/A,,Scattered Clouds,180,2014-01-05 16:53:00
12:32 PM,78.8,68.0,69,30.01,10.0,South,15.0,20.7,N/A,,Mostly Cloudy,180,2014-01-05 17:32:00
12:41 PM,75.2,69.8,83,30.01,10.0,SSE,11.5,20.7,0.01,Rain,Light Rain,150,2014-01-05 17:41:00
12:53 PM,79.0,71.1,77,30.00,10.0,SE,9.2,-,0.01,Rain,Light Rain,140,2014-01-05 17:53:00
1:53 PM,80.1,71.1,74,29.98,10.0,South,10.4,-,0.00,,Mostly Cloudy,170,2014-01-05 18:53:00
2:53 PM,77.0,66.0,69,29.99,10.0,South,10.4,-,N/A,,Mostly Cloudy,180,2014-01-05 19:53:00
3:53 PM,77.0,68.0,74,29.99,10.0,South,5.8,-,N/A,,Mostly Cloudy,190,2014-01-05 20:53:00
4:53 PM,75.9,66.0,71,29.99,10.0,SSW,5.8,-,N/A,,Overcast,210,2014-01-05 21:53:00
5:53 PM,75.0,66.9,76,30.01,10.0,SW,3.5,-,N/A,,Partly Cloudy,220,2014-01-05 22:53:00
6:53 PM,73.9,68.0,82,30.02,10.0,Calm,Calm,-,N/A,,Clear,0,2014-01-05 23:53:00
7:53 PM,73.0,68.0,84,30.03,10.0,Calm,Calm,-,N/A,,Clear,0,2014-01-06 00:53:00
8:53 PM,72.0,69.1,91,30.03,10.0,South,3.5,-,N/A,,Clear,170,2014-01-06 01:53:00
9:53 PM,71.1,69.1,93,30.04,10.0,SE,3.5,-,N/A,,Clear,140,2014-01-06 02:53:00
10:53 PM,70.0,69.1,97,30.03,10.0,SSE,4.6,-,N/A,,Clear,150,2014-01-06 03:53:00
11:53 PM,70.0,69.1,97,30.01,10.0,South,3.5,-,N/A,,Clear,170,2014-01-06 04:53:00